This demonstration page uses our WeatherBlox Daily Observations layout. Learn more.

Left ArrowRight Arrow

39.92423, -83.80882

Hourly Observations for March 30, 2019

Temp ( °F °C ) Dew Point ( °F °C ) Humidity (%) Winds ( mph kmh ) Pressure ( in mb ) Visibility ( mi km ) Precip ( " mm )
12:56 am 00:56 Cloudy 54 12.2 52 11.1 93 93 S 10 17 29.94 1014 10 16.0934 0 0
1:56 am 01:56 Cloudy with Rain 54 12.2 52 11.1 93 93 SSW 9 15 29.93 1014 10 16.0934 0.01 0.254
2:56 am 02:56 Cloudy 53 11.7 52 11.1 96 96 S 8 13 29.9 1012 10 16.0934 0.01 0.254
3:56 am 03:56 Cloudy 54 12.2 51 10.6 90 90 S 8 13 29.86 1011 10 16.0934 0 0
4:56 am 04:56 Cloudy 54 12.2 50 10 87 87 S 9 15 29.83 1010 10 16.0934 0 0
5:56 am 05:56 Cloudy with Light Rain 55 12.8 50 10 83 83 SSW 14 22 29.82 1010 10 16.0934 0 0.0254
6:56 am 06:56 Cloudy 55 12.8 50 10 83 83 S 10 17 29.8 1009 10 16.0934 0 0.0254
7:56 am 07:56 Cloudy 54 12.2 50 10 87 87 S 10 17 29.8 1009 10 16.0934 0 0.0254
8:56 am 08:56 Cloudy with Light Rain 55 12.8 50 10 83 83 S 12 19 29.78 1009 10 16.0934 0.01 0.254
9:56 am 09:56 Cloudy with Light Rain 54 12.2 51 10.6 90 90 S 12 19 29.77 1008 10 16.0934 0.14 3.556
10:53 am 10:53 Cloudy 55 13 52 11 88 88 SSW 14 22 29.77 1008 10 16.0934 0.01 0.254
10:56 am 10:56 Cloudy 55 12.8 51 10.6 87 87 SSW 16 26 29.77 1008 10 16.0934 0.01 0.254
11:49 am 11:49 Cloudy with Light Rain 54 12 54 12 100 100 SSW 15 24 29.77 1008 2.5 4.02335 0.02 0.508
11:56 am 11:56 Cloudy with Light Rain 54 12.2 53 11.7 97 97 SSW 17 28 29.78 1008 4 6.43736 0.02 0.508
12:08 pm 12:08 Cloudy with Light Rain 54 12 54 12 100 100 SSW 14 22 29.77 1008 2 3.21868 0 0.0254
12:20 pm 12:20 Cloudy with Light Rain 54 12 54 12 100 100 SW 14 22 29.77 1008 5 8.0467 0.01 0.254
12:40 pm 12:40 Cloudy with Rain 54 12 54 12 100 100 SSW 13 20 29.76 1008 3 4.82802 0.03 0.762
12:56 pm 12:56 Cloudy with Rain 54 12.2 53 11.7 97 97 SSW 15 24 29.76 1008 6 9.65604 0.07 1.778
1:56 pm 13:56 Cloudy with Light Rain 55 12.8 54 12.2 96 96 SW 12 19 29.75 1008 7 11.26538 0.1 2.54
2:56 pm 14:56 Cloudy 57 13.9 55 12.8 93 93 SSW 12 19 29.72 1007 10 16.0934 0 0.0254
3:28 pm 15:28 Cloudy with Rain 55 13 55 13 100 100 SW 13 20 29.71 1006 5 8.0467 0.05 1.27
3:39 pm 15:39 Cloudy with Light Rain 55 13 55 13 100 100 SW 12 19 29.71 1006 8 12.87472 0.06 1.524
3:56 pm 15:56 Cloudy with Heavy Rain 56 13.3 56 13.3 100 100 SW 16 26 29.71 1006 6 9.65604 0.13 3.302
4:44 pm 16:44 Cloudy with Heavy Rain 54 12 52 11 94 94 NW 16 26 29.7 1006 5 8.0467 0.17 4.318
4:56 pm 16:56 Cloudy with Light Rain 50 10 50 10 100 100 NNW 14 22 29.7 1006 9 14.48406 0.18 4.572
5:08 pm 17:08 Cloudy with Light Rain 48 9 48 9 100 100 NNW 13 20 29.71 1006 10 16.0934 0 0.0254
5:48 pm 17:48 Cloudy with Rain 46 8 46 8 100 100 N 10 17 29.7 1006 10 16.0934 0.01 0.254
5:56 pm 17:56 Cloudy with Light Rain 47 8.3 46 7.8 97 97 NNW 10 17 29.69 1006 10 16.0934 0.02 0.508
6:56 pm 18:56 Cloudy with Rain 45 7.2 44 6.7 97 97 NNW 14 22 29.7 1006 9 14.48406 0.2 5.08
7:50 pm 19:50 Cloudy with Light Rain 43 6 43 6 100 100 N 15 24 29.7 1006 1.75 2.816345 0.28 7.112
7:56 pm 19:56 Cloudy with Light Rain 43 6.1 43 6.1 100 100 N 17 28 29.68 1005 2 3.21868 0.3 7.62
8:05 pm 20:05 Cloudy with Light Rain 43 6 43 6 100 100 N 16 26 29.71 1006 6 9.65604 0.02 0.508
8:56 pm 20:56 Cloudy with Heavy Rain 42 5.6 42 5.6 100 100 NNW 21 33 29.71 1006 6 9.65604 0.12 3.048
9:17 pm 21:17 Cloudy with Light Rain 39 4 39 4 100 100 NNW 30 48 29.78 1008 3 4.82802 0.11 2.794
9:56 pm 21:56 Cloudy with Light Rain 37 2.8 36 2.2 96 96 NNW 21 33 29.8 1009 10 16.0934 0.13 3.302
10:17 pm 22:17 Cloudy with Light Rain 36 2 36 2 100 100 N 18 30 29.8 1009 8 12.87472 0.06 1.524
10:56 pm 22:56 Cloudy 36 2.2 35 1.7 97 97 NW 17 28 29.83 1010 10 16.0934 0.07 1.778
11:35 pm 23:35 Cloudy 36 2 36 2 100 100 NNW 17 28 29.86 1011 10 16.0934 0 0
11:56 pm 23:56 Cloudy with Light Rain 35 1.7 34 1.1 96 96 NW 14 22 29.88 1012 4 6.43736 0 0.0254

Powered by AerisWeather